Weather in Aksara

Russia / Yamalo-Nenets Autonomous Okrug     66°33′28″N   67°48′17″E
temp.,
°C
wind,
m/s
gust,
m/s
humid.,
%
clouds,
%
prec.,
mm/h
press.,
hPa
HPBL,
m
23 may, mon
mon2323:00+1ne121989100 1.1 1008631
02:00+1ne132288100 0.0 1006592
05:00+1ne142286100 0.0 1004653
08:00+3ne122084100 0.0 1003703
11:00+7ne12187796 0.1 1001777
14:00+8ne111978100 0.1 1000654
17:00+5sse2595100 1.6 1002291
20:00+3wsw71196100 8.8 1004641
24 may, tue
tue2423:00+4wsw3896100 10.2 1007431
02:00+2n2297100 0.0 1008140
05:00+3n238890 0.0 1010277
08:00+5nne2275100 0.0 1011426
11:00+7nne1164100 0.0 1012855
14:00+10nw2351100 0.0 10131507
17:00+11n225086 0.1 10141233
20:00+10ne4459100 0.0 1016340
25 may, wed
wed2523:00+7ne467079 0.0 1018251
02:00+4ene468118 0.0 1019126
05:00+5ene467710 0.0 1020206
08:00+9e33644 0.0 1021442
11:00+13e335268 0.0 1021928
14:00+16ese344192 0.0 10211628
17:00+15e774756 0.0 1021819
20:00+11e7125942 0.0 1021340
26 may, thu
thu2623:00+9ese61362100 0.0 1022274
02:00+9e71563100 0.0 1021340
05:00+9e91862100 0.0 1020439
08:00+11e71459100 0.0 1020522
11:00+14ese81353100 0.0 1019705
14:00+15e61155100 0.1 1018656
17:00+15e71157100 0.1 1017601
20:00+11e81760100 0.0 1016389
27 may, fri
fri2723:00+11e8186488 1.0 1014466
02:00+12ese8176083 1.1 1013412
05:00+12e71660100 2.2 1012453
08:00+15ese9175030 0.1 1010631
11:00+20ese11154087 0.1 10081238
14:00+20ese111639100 0.0 10071667
17:00+16sse81461100 0.3 10061207
20:00+13s3595100 3.4 1006361